Location: Unspecified
(51.5147°N, 7.4673°E)
Time: 05:41:24
(UTC+01:00)

A-11 Canister half - Pass Details

Date: 23 February 2026
Orbit: 1524 x 1683 km, 47.3° (Epoch: 14 March)

Event Time Altitude Azimuth Distance (km) Brightness Sun altitude
Rises 22:28:20 0° 286° (WNW) 4,679 12.2 -39.8°
Reaches altitude 10° 22:32:10 10° 273° (W) 3,693 11.4 -40.2°
Enters shadow 22:38:01 22° 234° (SW) 2,843 10.4 -40.9°
